Location: Newark
(27.9675°N, 86.8869°E)
Time: 21:39:29
(UTC+00:00)

Altair - Pass Details

Date: 31 October 2019
Orbit: 1502 x 1682 km, 47.2° (Epoch: 17 November)

Event Time Altitude Azimuth Distance (km) Brightness Sun altitude
Rises 06:04:33 0° 306° (NW) 4,730 9.8 48.0°
Reaches altitude 10° 06:08:22 10° 319° (NW) 3,775 9.4 47.9°
Maximum altitude 06:16:05 26° 13° (NNE) 2,770 8.7 47.7°
Drops below altitude 10° 06:24:00 10° 66° (ENE) 3,887 9.5 47.5°
Sets 06:27:59 0° 79° (E) 4,896 10.0 47.3°
